Terminal Aerodrome Forecast
Issued by NWS Charleston, WV

Current Version | Previous Version | Graphics & Text | Print | Product List | Glossary On
Versions: 1 2 3 4 5 6 7 8 9 10 11 12 13 14 15 16 17 18 19 20 21 22 23 24 25
000
FTUS41 KRLX 270246 AAC
TAFPKB
TAF AMD
KPKB 270246Z 2703/2724 18006KT 4SM TSRA BR BKN025CB BKN080
      TEMPO 2703/2704 24015G30KT 1SM TSRA BR
     FM270500 20006KT 3SM SHRA BR VCTS SCT001 OVC025CB
      TEMPO 2705/2707 1SM BR SCT001
     FM270700 21004KT 4SM BR SCT001 BKN020
     FM271300 22007KT P6SM BKN035=

USA.gov is the U.S. government's official web portal to all federal, state and local government web resources and services.